Location: Gleizolles
(44.4833°N, 6.7667°E)
Time: 13:59:24
(UTC+00:00)

deb Explorer IX - Pass Details

Date: 27 June 2024
Orbit: 510 x 878 km, 38.7° (Epoch: 21 July)

Event Time Altitude Azimuth Distance (km) Brightness Sun altitude
Rises 08:28:40 0° 262° (W) 2,745 ? 46.5°
Reaches altitude 10° 08:30:56 10° 254° (WSW) 1,897 ? 46.9°
Maximum altitude 08:35:01 39° 185° (S) 939 ? 47.6°
Drops below altitude 10° 08:39:32 10° 117° (ESE) 2,110 ? 48.4°
Sets 08:42:11 0° 110° (ESE) 3,098 ? 48.8°
